User: anonymous   Login
Location: Fort Hays State University
(38.8712°N, 99.3432°W)
Time: 09:25:09
(UTC-05:00)
Language:

ALOS - Orbit

View from above orbital plane
View from above orbital plane
View from above satellite
View from above satellite

Ground track
Ground track

The orbit data is extracted from the following two-line orbital elements,

1 28931U 06002A   14302.94470758  .00001089  00000-0  22908-3 0   897
2 28931 097.9672 356.2017 0002356 108.7882 349.1218 14.61404537467009
Epoch (UTC): 29 October 2014 22:40:22
Eccentricity: 0.0002356
inclination: 97.9672°
perigee height: 687 km
apogee height: 690 km
right ascension of ascending node: 356.2017°
argument of perigee: 108.7882°
revolutions per day: 14.61404537
mean anomaly at epoch: 349.1218°
orbit number at epoch: 46700

The dashed part of the orbit path shows where the satellite is in the earth's shadow,  

DLR